Wind_Speed
23 24 26 28 28 26 26 27 27 28 29 28 28 28 30 31 33 34 35 36 38 39 41 43 46 48 49 51 52 53 54 55 56 57 57 57 59 60 61 60 59 60 61
24 25 27 28 28 27 28 30 31 32 33 33 33 34 35 36 37 38 39 40 42 44 46 48 50 52 53 54 55 56 57 57 58 58 57 55 55 55 54 54 55 55 56
25 27 29 29 29 29 31 33 35 36 38 39 39 40 40 40 40 41 43 44 45 48 50 52 54 55 56 56 56 57 57 57 56 55 53 51 49 47 47 48 50 52 54
28 31 32 32 31 32 34 36 39 41 42 43 43 44 43 42 42 44 45 46 48 51 54 57 59 59 58 58 57 57 56 55 53 51 48 47 46 45 44 44 47 49 52
31 33 34 34 34 35 37 39 42 43 44 45 46 46 45 44 45 46 47 49 52 55 59 61 62 61 60 59 58 56 54 51 48 45 44 43 44 46 48 48 49 50 53
35 35 35 35 36 37 39 40 43 44 45 46 46 45 46 46 47 48 50 53 56 59 63 64 63 62 60 58 56 53 49 45 43 42 43 44 46 48 51 52 53 54 55
37 37 37 36 36 38 39 41 43 44 45 45 45 46 48 49 49 50 53 56 59 62 64 64 62 60 57 55 51 47 44 42 42 43 45 48 50 53 54 56 56 56 56
37 37 36 36 36 37 39 41 43 44 44 46 47 48 50 50 50 51 55 58 61 63 63 61 58 56 53 50 47 44 43 43 44 46 49 52 55 57 58 59 59 59 57
34 35 34 34 35 37 40 42 45 46 47 47 48 50 50 50 50 54 58 61 62 62 60 57 54 52 49 46 44 44 44 46 48 51 54 57 59 60 61 61 61 60 58
34 34 34 35 37 40 43 45 48 49 50 50 50 50 49 50 54 58 60 61 61 58 56 54 51 48 46 45 45 45 47 50 53 56 58 60 61 61 61 60 59 58 56
36 37 38 39 41 43 45 46 49 52 53 52 50 49 50 52 56 59 59 58 56 55 54 51 48 45 44 45 47 49 52 55 58 60 61 62 61 60 58 57 54 52 51
35 35 38 41 43 45 47 48 51 52 52 51 49 48 50 53 56 56 55 54 53 53 50 47 45 44 45 48 50 53 56 59 61 62 62 61 59 57 55 52 49 47 45
38 39 41 43 44 46 48 49 50 50 51 50 48 51 52 53 53 52 52 52 51 50 47 45 45 46 49 51 54 56 59 61 62 62 61 58 56 52 49 46 43 41 39
41 42 43 45 47 49 50 49 49 49 49 49 51 52 51 49 49 50 50 50 48 46 45 46 47 49 52 54 56 58 60 60 60 59 57 53 50 46 43 40 38 36 34
44 45 46 47 49 50 50 49 50 49 50 51 50 49 48 48 48 49 49 47 45 45 46 48 50 53 54 56 58 58 58 58 55 53 50 47 44 40 36 34 33 31 29
49 49 49 49 50 50 50 50 49 49 49 49 48 47 47 48 48 48 46 45 45 46 48 50 53 54 56 57 57 57 55 53 49 46 44 41 37 34 31 29 28 25 22
51 51 51 52 51 51 50 48 48 48 47 47 46 46 47 47 47 45 44 44 46 48 50 52 53 54 55 55 53 51 49 46 43 41 38 35 32 28 26 24 22 19 16
54 54 54 54 53 51 48 48 47 46 45 45 45 46 46 45 44 43 44 46 48 50 51 52 53 53 52 50 47 45 43 41 39 37 33 30 27 24 22 20 17 14 10
55 54 53 50 49 46 44 43 43 44 43 44 45 45 44 43 42 43 46 48 50 50 50 51 51 49 47 45 42 40 39 38 36 33 29 25 22 20 18 15 11 7 5
49 48 46 44 44 42 39 39 40 41 42 43 42 42 41 41 43 45 47 48 48 48 48 48 47 45 42 40 38 38 37 35 33 29 25 21 18 15 12 8 6 5 6
41 40 39 39 37 34 34 35 37 39 40 39 39 38 39 42 44 46 46 46 46 46 46 46 45 42 38 37 36 36 34 31 28 24 20 16 12 8 4 4 6 8 9
35 35 34 31 30 29 31 33 35 36 36 35 36 38 41 43 44 44 44 43 43 43 43 42 41 38 36 35 34 32 29 25 22 18 14 10 5 1 4 8 11 12 12
26 25 24 23 24 26 29 31 32 32 32 33 35 39 41 42 42 41 41 40 40 40 40 39 38 35 33 32 29 26 23 20 17 13 8 5 3 6 10 13 14 15 14
18 18 18 19 22 25 27 28 28 29 30 33 36 39 39 40 39 38 38 37 37 37 36 36 34 31 29 27 24 20 19 17 14 10 7 6 10 13 15 16 16 16 15
13 13 15 18 21 23 24 24 25 27 31 34 36 37 38 37 37 36 35 34 34 33 33 31 29 27 25 22 18 17 16 14 11 9 8 10 13 15 17 17 16 15 13
9 12 15 17 18 19 19 21 24 28 31 33 35 35 36 35 35 34 33 32 31 31 29 28 26 24 21 17 15 16 15 13 11 10 10 13 16 17 18 17 16 14 13
Wind_Direction
284 291 299 305 309 310 312 314 315 316 318 320 321 323 325 326 327 328 327 326 325 323 322 319 317 314 311 308 305 302 300 298 296 293 291 289 288 286 285 284 283 281 279
277 284 293 299 303 306 309 310 311 312 313 315 316 318 319 321 323 324 324 324 323 323 321 319 317 314 311 307 305 302 300 298 296 294 292 291 288 287 286 285 284 283 282
274 280 288 294 300 304 306 307 307 309 310 311 312 313 314 315 318 320 321 321 321 321 320 318 316 313 310 307 304 302 300 299 297 295 294 292 291 289 287 287 287 286 285
273 279 285 291 295 299 301 303 304 305 306 308 308 308 310 311 313 315 317 317 318 318 318 317 315 312 310 307 305 303 301 299 297 295 294 294 293 292 291 290 290 289 288
272 277 283 288 292 295 297 299 300 301 302 304 305 306 307 308 310 312 313 315 316 316 316 315 314 311 309 307 305 303 302 299 297 296 295 295 295 295 294 294 293 292 292
273 277 281 284 287 290 293 294 296 297 299 301 303 304 306 306 308 309 311 313 314 315 315 314 312 311 309 307 306 303 301 299 297 297 296 295 295 295 295 296 296 294 294
272 275 278 280 283 287 289 291 292 295 297 299 301 303 304 305 306 308 310 312 313 314 313 312 311 309 308 307 305 302 299 298 297 297 297 296 296 296 296 296 296 295 294
273 274 276 278 281 284 286 288 291 293 294 296 300 302 302 303 305 307 309 311 312 312 311 310 309 308 307 306 303 301 299 297 297 297 297 297 297 297 297 296 296 295 294
274 275 276 277 279 281 284 287 289 290 291 294 296 298 299 301 303 306 308 309 309 310 309 309 308 308 307 304 301 299 298 297 298 298 298 298 298 297 297 296 295 295 294
274 275 277 279 280 283 285 288 289 290 291 292 294 296 299 301 305 307 307 307 308 309 308 308 308 307 304 302 300 300 299 299 299 299 299 299 298 297 296 295 294 294 293
277 278 280 283 284 285 287 290 292 290 289 289 292 296 301 304 306 307 307 307 308 309 309 308 307 306 304 303 302 301 301 301 301 300 300 299 298 297 295 294 293 292 292
282 283 286 287 288 289 289 292 291 289 288 290 296 302 306 308 308 307 307 308 309 309 309 308 306 306 305 304 304 304 303 303 302 301 301 300 299 297 295 293 292 291 290
284 286 288 290 292 294 295 294 290 289 292 297 304 310 311 309 308 308 309 310 310 310 309 307 307 307 307 306 306 306 305 304 303 302 301 300 299 297 295 293 290 290 290
287 288 290 292 293 296 297 296 295 296 299 304 310 312 310 309 310 310 311 311 311 310 309 308 309 309 309 308 307 306 305 305 304 304 303 302 300 297 295 291 289 289 289
288 289 290 293 295 297 297 296 298 300 305 310 311 310 310 311 312 312 312 312 311 310 310 311 311 311 310 309 309 308 307 307 306 306 305 304 301 298 294 291 289 288 286
286 288 290 293 295 296 298 300 302 305 309 310 310 310 312 313 313 313 313 312 311 312 312 313 312 312 312 311 310 310 309 309 309 309 307 305 303 299 296 292 290 286 279
284 287 290 293 295 297 300 300 303 306 308 309 310 312 313 313 314 314 313 313 313 314 314 314 313 313 313 313 313 312 311 311 312 311 309 306 304 300 297 294 290 283 273
284 286 289 291 294 297 297 298 301 305 308 309 311 313 314 314 314 313 313 314 315 315 315 315 315 315 315 315 315 313 312 314 314 313 311 308 305 301 298 293 286 278 263
280 283 286 289 291 289 289 295 301 305 308 310 312 314 314 314 314 314 315 316 316 316 315 316 316 317 318 317 316 315 315 315 315 313 310 307 304 301 296 288 275 256 226
277 279 281 282 281 282 289 298 302 305 309 311 313 314 313 313 314 316 316 317 316 316 317 318 319 321 320 318 318 318 317 316 316 315 311 308 306 302 293 273 236 198 173
274 273 271 270 275 285 294 299 303 307 311 313 313 313 313 314 316 317 317 317 317 318 320 321 323 324 322 321 320 320 320 319 318 316 315 313 311 302 275 205 169 157 149
264 261 261 268 280 290 297 301 306 310 312 312 312 313 315 316 318 318 318 319 320 322 324 325 327 327 326 325 325 325 324 325 325 324 324 325 326 298 155 147 144 143 141
255 259 268 280 289 295 301 306 310 311 312 312 314 316 317 318 319 320 321 323 324 326 327 328 329 329 330 330 331 332 335 337 338 342 350 4 75 121 131 135 136 137 137
260 269 280 290 297 303 308 310 311 312 313 315 317 319 320 321 322 323 325 326 328 329 331 331 331 332 334 337 340 345 349 351 354 7 32 79 110 121 128 132 134 134 134
264 278 291 300 306 309 311 311 312 314 317 319 321 323 324 325 326 327 328 330 331 332 333 334 336 338 341 345 350 355 358 3 13 36 70 105 118 124 129 131 132 131 129
280 295 304 309 312 312 313 315 317 320 322 324 326 327 327 328 329 330 332 333 335 336 338 341 344 346 349 353 358 2 6 19 37 62 89 113 122 126 129 130 129 127 121
Height
5851 5850 5849 5847 5845 5843 5841 5839 5838 5837 5835 5833 5831 5828 5825 5822 5819 5816 5812 5809 5805 5801 5797 5792 5788 5783 5778 5773 5767 5762 5757 5752 5747 5743 5739 5734 5728 5723 5719 5715 5711 5708 5704
5845 5844 5843 5841 5839 5837 5835 5833 5832 5830 5828 5825 5823 5820 5817 5814 5811 5807 5804 5800 5795 5791 5786 5781 5776 5771 5765 5759 5754 5748 5742 5737 5731 5726 5722 5718 5715 5708 5703 5699 5695 5691 5688
5839 5838 5837 5835 5833 5831 5829 5827 5825 5822 5820 5817 5814 5812 5809 5805 5802 5798 5794 5790 5785 5781 5775 5770 5764 5758 5752 5745 5739 5733 5727 5721 5716 5710 5705 5701 5697 5694 5692 5687 5682 5676 5672
5833 5832 5830 5829 5827 5825 5823 5820 5818 5815 5812 5809 5806 5803 5800 5797 5793 5790 5786 5781 5776 5770 5764 5758 5751 5744 5737 5731 5724 5718 5712 5706 5700 5695 5690 5686 5682 5678 5677 5675 5669 5663 5658
5826 5825 5824 5822 5820 5818 5816 5814 5811 5807 5804 5801 5798 5795 5792 5788 5785 5781 5776 5771 5765 5759 5752 5745 5737 5730 5722 5715 5709 5702 5696 5691 5686 5681 5677 5673 5669 5664 5661 5659 5656 5650 5642
5819 5818 5817 5815 5813 5811 5809 5806 5803 5800 5797 5794 5790 5787 5783 5780 5776 5771 5766 5760 5753 5746 5739 5731 5723 5715 5707 5700 5694 5687 5682 5677 5672 5669 5665 5661 5657 5652 5647 5643 5639 5635 5628
5811 5810 5809 5808 5806 5803 5801 5798 5795 5792 5789 5785 5781 5778 5774 5770 5765 5760 5754 5747 5740 5733 5725 5716 5708 5701 5693 5686 5680 5674 5669 5665 5661 5657 5652 5647 5642 5637 5632 5627 5623 5619 5614
5802 5802 5801 5799 5797 5795 5792 5789 5786 5783 5780 5776 5772 5768 5764 5759 5754 5749 5743 5736 5728 5720 5712 5703 5695 5687 5680 5673 5667 5662 5658 5653 5649 5644 5639 5633 5627 5621 5615 5610 5605 5602 5599
5794 5793 5792 5790 5789 5786 5784 5781 5778 5774 5770 5766 5762 5758 5754 5749 5744 5738 5731 5724 5716 5707 5699 5690 5682 5674 5667 5661 5656 5651 5646 5641 5636 5630 5624 5618 5611 5604 5598 5592 5586 5583 5580
5786 5785 5784 5782 5780 5778 5775 5771 5768 5764 5760 5756 5752 5747 5743 5738 5733 5726 5719 5711 5702 5694 5686 5678 5670 5662 5656 5650 5645 5639 5634 5628 5622 5615 5609 5601 5595 5588 5581 5575 5569 5564 5561
5778 5777 5776 5774 5771 5769 5765 5761 5757 5753 5749 5745 5741 5737 5732 5727 5720 5713 5705 5697 5689 5681 5673 5665 5658 5651 5644 5639 5633 5627 5620 5614 5606 5599 5592 5585 5578 5571 5564 5558 5553 5548 5544
5770 5769 5767 5765 5762 5758 5755 5751 5747 5742 5738 5734 5730 5725 5720 5714 5707 5700 5692 5684 5676 5668 5660 5653 5646 5639 5633 5627 5620 5613 5606 5598 5590 5583 5575 5568 5561 5554 5548 5543 5538 5534 5530
5763 5761 5759 5756 5753 5749 5745 5741 5736 5732 5727 5722 5717 5712 5707 5701 5694 5686 5679 5671 5663 5656 5648 5641 5634 5627 5621 5614 5606 5599 5591 5582 5574 5566 5558 5551 5545 5539 5533 5529 5525 5521 5518
5754 5752 5749 5747 5743 5739 5735 5731 5726 5721 5716 5712 5706 5701 5694 5688 5681 5673 5666 5659 5651 5644 5637 5630 5623 5615 5608 5600 5592 5584 5575 5566 5558 5549 5542 5535 5530 5525 5520 5516 5513 5510 5507
5744 5742 5739 5736 5733 5729 5725 5720 5716 5711 5706 5701 5695 5689 5682 5675 5668 5661 5654 5647 5640 5633 5626 5618 5611 5603 5595 5586 5578 5569 5560 5551 5543 5535 5527 5521 5516 5512 5508 5505 5502 5500 5498
5734 5732 5729 5726 5723 5719 5715 5710 5705 5701 5696 5690 5684 5677 5671 5664 5657 5650 5643 5636 5629 5622 5614 5606 5598 5590 5581 5572 5563 5554 5545 5537 5530 5523 5516 5509 5505 5501 5498 5495 5493 5491 5490
5723 5721 5718 5716 5712 5709 5705 5700 5696 5690 5685 5679 5673 5666 5660 5653 5646 5639 5633 5626 5619 5611 5603 5594 5586 5577 5568 5559 5550 5540 5532 5525 5519 5513 5506 5500 5496 5492 5490 5487 5486 5485 5484
5713 5710 5708 5706 5702 5699 5695 5690 5686 5681 5675 5669 5663 5656 5649 5642 5636 5630 5623 5616 5608 5600 5591 5583 5574 5565 5556 5547 5539 5530 5522 5515 5509 5503 5498 5493 5489 5485 5483 5482 5481 5481 5481
5701 5700 5698 5695 5693 5690 5686 5681 5677 5671 5665 5659 5653 5646 5640 5634 5627 5621 5613 5606 5597 5589 5580 5572 5563 5555 5546 5537 5529 5521 5513 5507 5501 5495 5490 5486 5483 5480 5478 5477 5477 5478 5479
5690 5689 5688 5686 5683 5680 5676 5672 5668 5663 5657 5650 5644 5638 5632 5626 5619 5612 5604 5596 5587 5579 5570 5562 5553 5545 5536 5528 5520 5513 5506 5499 5493 5488 5483 5480 5478 5475 5474 5474 5475 5477 5479
5680 5679 5678 5676 5674 5671 5668 5665 5660 5655 5648 5642 5637 5631 5625 5618 5611 5603 5595 5586 5578 5569 5561 5552 5544 5536 5528 5520 5512 5505 5498 5492 5487 5482 5478 5476 5473 5472 5472 5473 5475 5477 5480
5671 5671 5669 5668 5666 5664 5661 5657 5652 5647 5641 5636 5630 5624 5617 5610 5602 5594 5586 5577 5569 5561 5552 5544 5535 5527 5520 5513 5505 5498 5492 5486 5482 5478 5475 5473 5471 5471 5472 5474 5477 5479 5481
5664 5664 5663 5662 5660 5658 5655 5650 5645 5640 5635 5630 5624 5617 5610 5602 5594 5586 5578 5569 5561 5553 5545 5537 5529 5521 5514 5507 5501 5494 5488 5483 5479 5476 5473 5472 5472 5472 5474 5477 5479 5482 5484
5660 5660 5659 5657 5655 5652 5648 5644 5640 5635 5630 5624 5618 5610 5602 5594 5586 5578 5570 5563 5555 5547 5539 5532 5524 5517 5510 5504 5497 5492 5487 5483 5479 5476 5474 5474 5474 5476 5478 5480 5483 5485 5487
5656 5655 5654 5652 5650 5647 5643 5639 5635 5630 5625 5618 5611 5603 5595 5587 5579 5572 5564 5557 5550 5542 5535 5527 5520 5513 5507 5501 5496 5492 5488 5484 5480 5478 5477 5477 5478 5480 5482 5485 5487 5490 5492
5652 5651 5650 5648 5645 5642 5639 5636 5631 5626 5620 5613 5605 5597 5589 5581 5573 5566 5559 5551 5545 5538 5530 5523 5516 5510 5505 5500 5496 5492 5489 5485 5482 5481 5480 5481 5482 5484 5487 5489 5492 5494 5496